Voltar ao catálogo

COSMOS 2251 DEB

AtivoLEO
NORAD 35887·DEBRIS·🇷🇺 Russia

Lançado Jun 16, 1993 de Plesetsk Cosmodrome

Loading…

Próximas Passagens (próximas 24 horas)

TLE

ObsoletoSource: Space-Track

Época: Aug 16, 2026, 03:44 UTC

1 35887U 93036AUA 26228.15558742  .00004706  00000-0  11746-2 0  9997
2 35887  73.9766  41.7043 0078923 137.3993 223.3327 14.49978614680957

Acompanhe COSMOS 2251 DEB em tempo real com AllMySat

Download on the App Store